Location: Garos
(43.5000°N, 0.4667°W)
Time: 03:54:32
(UTC+00:00)

CZ-4B R/B - Pass Details

Date: 03 February 2023
Orbit: 809 x 881 km, 99.0° (Epoch: 26 March)

Event Time Altitude Azimuth Distance (km) Brightness Sun altitude
Rises 17:48:54 0° 128° (SE) 3,337 6.0 -6.5°
Reaches altitude 10° 17:51:35 10° 115° (ESE) 2,418 5.1 -7.0°
Maximum altitude 17:55:51 25° 62° (ENE) 1,627 4.1 -7.7°
Drops below altitude 10° 18:00:10 10° 9° (N) 2,465 5.4 -8.5°
Sets 18:02:56 0° 357° (N) 3,418 6.2 -9.0°
